Total_Precipitation_Accumulation
0.34 0.30 0.31 0.26 0.25 0.24 0.27 0.31 0.39 0.46 0.41 0.40 0.39 0.42 0.40 0.34 0.32 0.33 0.35 0.40 0.47 0.56 0.64 0.70 0.80 0.89 0.94 1.02 1.09 1.24 1.43 1.42 1.29 1.23 1.24 1.26 1.35 1.35 1.36 1.30 1.36 1.33 1.15
0.30 0.28 0.29 0.26 0.23 0.24 0.27 0.31 0.39 0.47 0.43 0.44 0.43 0.42 0.41 0.40 0.35 0.33 0.36 0.39 0.47 0.57 0.61 0.65 0.70 0.81 0.83 0.87 0.95 1.21 1.45 1.30 1.35 1.57 1.73 1.63 1.60 1.52 1.53 1.44 1.56 1.80 1.32
0.26 0.30 0.26 0.32 0.28 0.24 0.26 0.30 0.37 0.48 0.48 0.50 0.48 0.44 0.42 0.43 0.40 0.40 0.41 0.44 0.53 0.67 0.69 0.71 0.77 0.86 0.86 0.85 0.92 1.11 1.41 1.46 1.57 1.93 2.37 2.04 1.90 1.80 1.67 1.53 1.41 1.42 1.28
0.26 0.27 0.24 0.28 0.31 0.26 0.26 0.30 0.39 0.50 0.51 0.57 0.52 0.48 0.47 0.45 0.46 0.46 0.49 0.50 0.60 0.70 0.75 0.80 0.81 0.83 0.82 0.81 0.92 1.09 1.30 1.51 1.79 2.17 2.58 2.41 2.25 2.25 2.02 1.73 1.50 1.38 1.29
0.33 0.29 0.26 0.27 0.30 0.30 0.30 0.31 0.43 0.53 0.54 0.62 0.59 0.57 0.58 0.56 0.51 0.48 0.51 0.54 0.60 0.71 0.74 0.72 0.71 0.72 0.77 0.79 0.90 1.04 1.31 1.63 1.92 2.22 2.77 3.02 3.02 2.67 2.07 1.68 1.59 1.55 1.43
0.42 0.35 0.27 0.29 0.31 0.36 0.37 0.39 0.51 0.53 0.60 0.69 0.68 0.69 0.69 0.69 0.63 0.58 0.62 0.64 0.63 0.70 0.73 0.75 0.76 0.75 0.78 0.83 0.90 1.02 1.21 1.59 1.83 2.07 2.77 3.04 2.75 2.55 2.12 1.79 1.68 1.54 1.37
0.50 0.41 0.31 0.33 0.40 0.46 0.50 0.52 0.66 0.63 0.69 0.79 0.85 0.82 0.77 0.75 0.71 0.67 0.71 0.74 0.73 0.71 0.73 0.78 0.84 0.81 0.80 0.88 0.93 0.99 1.11 1.45 1.66 2.42 2.70 2.69 2.68 2.57 2.32 2.03 1.85 1.63 1.41
0.54 0.45 0.39 0.39 0.53 0.66 0.69 0.67 0.78 0.74 0.79 0.88 0.96 0.93 0.84 0.75 0.70 0.69 0.73 0.75 0.80 0.84 0.79 0.75 0.75 0.75 0.81 0.91 0.93 0.98 1.14 1.22 1.38 1.97 2.35 2.37 2.27 2.32 2.42 2.12 1.88 1.74 1.58
0.67 0.54 0.48 0.47 0.65 0.88 0.92 0.83 0.83 0.80 0.84 0.94 1.07 1.08 0.95 0.83 0.74 0.74 0.79 0.81 0.87 0.87 0.78 0.70 0.71 0.73 0.76 0.82 0.92 0.94 1.07 1.26 1.43 1.82 1.93 2.13 1.92 2.09 2.41 2.25 1.87 1.72 1.67
1.00 0.81 0.70 0.70 0.79 0.89 0.91 0.94 0.90 0.87 0.96 1.03 1.10 1.12 1.05 0.95 0.86 0.86 0.83 0.87 0.88 0.92 0.89 0.84 0.83 0.83 0.80 0.81 0.90 1.01 1.11 1.24 1.36 1.67 2.26 2.19 1.86 2.31 2.54 2.32 2.02 1.88 1.77
1.17 1.23 1.14 1.01 1.00 1.01 0.99 1.00 1.05 1.03 1.04 1.08 1.11 1.09 1.05 1.06 1.16 1.11 0.96 1.00 1.02 1.11 1.17 1.10 1.05 1.03 0.97 0.97 1.04 1.17 1.24 1.06 1.37 2.00 2.52 2.31 2.14 2.51 2.65 2.44 2.22 2.09 1.95
1.41 1.54 1.56 1.51 1.43 1.37 1.29 1.42 1.44 1.25 1.17 1.15 1.27 1.17 1.16 1.43 1.53 1.36 1.43 1.43 1.42 1.41 1.42 1.38 1.29 1.20 1.13 1.05 1.17 1.28 1.13 1.16 1.63 2.24 2.28 1.91 2.22 2.70 2.83 2.64 2.42 2.36 2.28
1.81 1.62 1.56 1.73 1.76 1.87 1.99 1.83 1.77 1.73 1.70 1.64 1.74 1.65 1.68 1.88 1.81 1.82 1.88 1.75 1.65 1.64 1.64 1.75 1.57 1.24 1.15 1.29 1.38 1.32 1.28 1.35 1.64 2.10 2.20 2.00 2.27 2.78 2.99 2.88 2.63 2.57 2.61
2.15 1.97 1.75 1.78 1.81 1.96 2.16 2.14 2.05 1.99 1.98 1.94 1.99 1.83 2.02 2.22 2.30 2.30 2.35 2.13 2.07 2.06 2.16 2.15 2.03 1.71 1.50 1.45 1.43 1.46 1.53 1.56 1.74 2.02 2.09 1.85 2.04 2.56 3.07 3.13 2.90 2.78 2.75
2.49 2.37 2.19 1.98 1.94 2.08 2.35 2.49 2.39 2.40 2.35 2.45 2.55 2.29 2.30 2.33 2.42 2.73 2.72 2.89 2.55 2.51 2.61 2.58 2.36 2.22 2.02 1.82 1.73 1.68 1.73 1.72 1.79 1.96 1.94 1.89 2.04 2.38 2.88 3.16 3.18 3.16 3.11
3.08 2.77 2.52 2.35 2.20 2.21 2.34 2.62 2.69 2.55 2.66 2.78 2.88 2.70 2.67 2.73 2.85 3.19 3.30 3.30 3.07 3.11 3.29 3.34 3.12 2.85 2.58 2.47 2.23 2.15 2.11 2.12 2.24 2.24 2.18 2.08 1.96 2.03 2.52 3.02 3.33 3.51 3.49
3.26 3.15 2.92 2.79 2.75 2.58 2.56 2.83 2.94 2.85 2.82 2.89 3.08 3.12 3.03 3.10 3.40 3.53 3.83 3.78 3.56 3.57 3.62 3.59 3.80 3.74 3.21 2.85 2.69 2.63 2.59 2.51 2.65 2.74 2.77 2.57 2.23 2.13 2.29 2.65 2.97 3.18 3.30
3.44 3.21 3.13 2.81 2.78 3.00 3.03 3.32 3.26 3.32 3.47 3.40 3.46 3.66 3.63 3.65 3.75 3.82 3.84 3.91 3.82 3.81 4.10 4.23 4.17 4.06 3.81 3.42 3.23 3.00 2.84 2.90 2.74 2.74 2.81 2.68 2.60 2.25 2.10 2.13 2.33 2.55 2.92
2.93 3.00 3.12 3.05 3.01 3.08 3.28 3.64 3.77 3.95 4.15 4.33 4.39 4.60 4.52 4.31 4.23 4.30 4.27 4.39 4.24 4.29 4.27 4.14 4.52 4.44 4.29 3.88 3.39 3.17 2.87 2.85 2.77 2.47 2.48 2.51 2.48 2.34 2.22 2.03 2.13 2.34 2.67
2.88 3.01 3.17 3.35 3.56 3.52 3.56 3.78 4.22 4.43 4.58 4.95 5.01 5.04 5.13 5.13 4.97 4.97 4.93 4.92 4.78 4.65 4.53 4.50 4.58 4.39 4.25 3.96 3.43 3.18 2.85 2.50 2.45 2.44 2.19 2.29 2.25 2.05 2.13 2.15 2.21 2.09 2.35
3.02 3.19 3.16 3.39 3.79 4.03 4.39 4.37 4.57 5.04 5.37 5.48 5.58 5.57 5.50 5.43 5.43 5.27 5.09 5.19 5.04 4.80 4.56 4.50 4.48 4.40 4.08 4.00 4.00 3.56 2.91 2.47 2.27 2.10 2.10 2.15 1.98 1.96 2.23 2.24 2.18 2.08 1.99
3.04 3.28 3.39 3.54 4.04 4.54 5.09 5.61 5.99 6.37 6.38 6.45 6.37 6.27 5.96 5.77 5.68 5.50 5.50 5.32 5.09 4.96 4.70 4.50 4.46 4.38 4.05 4.03 4.06 4.00 3.26 2.72 2.13 1.68 1.78 1.84 1.81 1.87 1.97 1.91 1.89 1.95 1.96
3.00 3.26 3.41 3.77 4.43 5.28 5.84 6.32 6.87 7.19 6.89 6.60 6.31 6.22 6.12 6.03 5.94 5.81 5.78 5.49 5.25 4.99 4.64 4.38 4.26 4.18 4.04 4.03 3.94 4.07 3.52 2.85 2.33 1.88 1.65 1.57 1.63 1.78 1.77 1.82 1.77 1.78 1.85
3.00 3.15 3.37 4.03 4.75 5.41 6.00 6.63 7.22 7.50 7.53 7.29 6.73 6.24 5.82 5.54 5.34 5.23 5.18 5.02 4.82 4.53 4.29 4.00 3.92 3.88 4.02 3.86 3.81 3.62 3.35 2.99 2.75 2.36 1.97 1.71 1.65 1.66 1.67 1.68 1.69 1.74 1.80
2.67 3.16 3.52 4.13 4.83 5.48 6.23 7.00 7.46 7.69 7.66 7.28 6.50 5.71 5.16 4.86 4.59 4.37 4.29 4.20 4.05 3.86 3.68 3.60 3.63 3.58 3.54 3.40 3.29 3.28 3.30 3.24 2.91 2.58 2.24 1.96 1.85 1.72 1.68 1.71 1.83 1.85 1.83
2.57 2.99 3.49 3.82 4.43 5.12 5.73 6.33 6.56 6.76 6.69 6.26 5.84 5.34 4.94 4.44 3.99 3.63 3.48 3.40 3.25 3.12 3.13 3.15 3.21 3.18 3.20 3.18 3.09 2.96 2.93 2.92 2.73 2.65 2.38 2.13 2.10 1.92 1.80 1.73 1.70 1.77 1.80